Location: Norton
(51.3000°N, 0.8167°E)
Time: 12:41:11
(UTC+00:00)

ATLAS CENTAUR R/B - Pass Details

Date: 03 March 2021
Orbit: 475 x 670 km, 64.7° (Epoch: 30 March)

Event Time Altitude Azimuth Distance (km) Brightness Sun altitude
Rises 18:19:30 0° 177° (S) 2,519 4.7 -6.8°
Reaches altitude 10° 18:22:11 10° 156° (SSE) 1,640 3.5 -7.2°
Maximum altitude 18:24:33 17° 115° (ESE) 1,288 2.7 -7.6°
Drops below altitude 10° 18:26:57 10° 74° (ENE) 1,657 3.1 -8.0°
Enters shadow 18:27:02 10° 73° (ENE) 1,682 3.2 -8.0°
